{"data":{"norad_id":67457,"intl_designator":"2026-008N","name":"STARLINK-36529","alt_names":[],"object_type":"PAYLOAD","status":"ACTIVE","operator":null,"country":"US","launch_date":"2026-01-14","launch_site_code":"AFETR","launch_vehicle":null,"mission":null,"orbit_class":"UNKNOWN","rcs_meters":null,"size_class":null,"mass_kg":null,"dimensions":null,"purposes":["comms"],"wikipedia_slug":null,"has_3d_model":false,"image_url":null,"decayed_at":null,"tle_current":{"epoch":"2026-09-18T12:54:55.659744Z","epoch_age_seconds":241761,"freshness":"STALE","line1":"1 67457U 26008N   26261.53814421  .00018522  00000+0  68083-3 0  9995","line2":"2 67457  43.0023 196.3136 0001545 266.3814  93.6861 15.27583920 39060","mean_motion":15.2758392,"eccentricity":0.0001545,"inclination_deg":43.0023,"raan_deg":196.3136,"arg_perigee_deg":266.3814,"mean_anomaly_deg":93.6861,"bstar":0.00068083,"rev_number":3906,"period_min":94.266506811619,"perigee_km":481.9773067362,"apogee_km":484.09740961288,"semimajor_km":6861.1743581745,"source":"CELESTRAK","updated_at":"2026-09-20T09:00:43.549758Z"}}}